www.pogodaiklimat.ru

Погода и климат >> Архив погоды >> Россия >> Хакасия >> Первомайское


ПОГОДА в Первомайском

  • Прогноз погоды в Первомайском
  • Монитор погоды в Первомайском

АРХИВ ПОГОДЫ в Первомайском

Время (UTC), дата Ветер
(напр.,м/с)
 
Видим.   Явления Облачность Т
(С)
Тd
(С)
f
(%)
Тe
(С)
Тes
(С)
Комфортность P
(гПа)
Po
(гПа)
Тmin
(С)
Tmax
(С)
R
(мм)
R24
(мм)
S
(см)
00 20.03 З 1 4000 м слаб. снег 10/0 2000 м
[Ac As]
-6.1 -6.9 94 -9 -9 1033.0 997.5 -6.2 0.7 3
03 20.03 З 3 4000 м слаб. снег 10 баллов -3.8 -5.9 85 -9 -9 1035.3 1000.0
06 20.03 СЗ 2 20 км 10 баллов -2.0 -7.3 67 -6 -6 1035.1 1000.0
09 20.03 СВ 3 20 км слаб. ливневой снег 10 баллов -1.4 -6.2 70 -6 -6 1035.0 1000.0
12 20.03 СВ 2 20 км слаб. ливневой снег 10/4 600 м
[Cb cap Ac trans Ci fib]
-2.8 -5.6 81 -7 -7 1035.8 1000.0 -0.9
15 20.03 ЮЗ 2 н/о 2 балла -11.3 -11.9 95 -16 -16 1037.7 1001.3
18 20.03 ЮЗ 1 н/о 2 балла -13.2 -13.8 95 -16 -16 1038.0 1001.3
21 20.03 ЮЗ 1 н/о 7 баллов -13.2 -13.8 95 -16 -16 1038.0 1001.3
00 21.03 З 1 20 км 6/3 1000 м
[Sc Ci fib]
-16.0 -17.2 90 -19 -19 1037.5 999.8 -16.0
03 21.03 Ю 1 20 км ясно -5.6 -7.4 87 -8 -3 1036.9 1001.3
06 21.03 Ю 3 20 км 2 балла +2.3 -6.3 53 -1 +4 1034.6 1000.0
09 21.03 З 1 20 км 1 балл +5.7 -7.5 38 +5 +10 1032.8 998.7
12 21.03 ЮВ 3 20 км 4/0
[Ci fib]
+2.0 -7.7 49 -2 -2 1031.5 997.0 +5.9
15 21.03 З 1 н/о 2 балла -8.7 -9.8 92 -11 -11 1033.2 997.3
18 21.03 ЮЗ 2 н/о 1 балл -12.0 -12.6 95 -17 -17 1033.7 997.3
21 21.03 ЮЗ 2 н/о 2 балла -13.0 -13.6 95 -18 -18 1032.5 996.0
00 22.03 З 1 20 км 3/0
[Ci sp]
-13.7 -14.3 95 -16 -16 1031.2 994.7 -14.5
03 22.03 В 1 20 км ясно -1.2 -5.4 73 -3 +2 1029.5 994.7
06 22.03 ЮВ 1 20 км 4 балла +7.0 -7.0 36 +7 +13 1025.7 992.0
09 22.03 Ю 4 20 км 6 баллов +9.8 -7.4 29 +8 +9 1024.0 990.7
12 22.03 З 4 20 км 9/0
[Ci fib]
+8.0 -11.9 23 +6 +6 1022.8 989.3 +10.2
15 22.03 З 2 н/о 6 баллов -0.5 -12.4 40 -3 -3 1023.9 989.3
18 22.03 ЮЗ 2 н/о 10 баллов -5.4 -10.5 67 -9 -9 1024.5 989.3
21 22.03 З 1 н/о 10 баллов -7.6 -9.8 84 -10 -10 1024.8 989.3
00 23.03 ЮЗ 2 20 км 6/0 2000 м
[Ac lent Ci fib]
-9.4 -11.0 88 -14 -14 1024.0 988.4 -10.3
03 23.03 штиль 0 20 км 7 баллов +1.2 -7.3 53 +1 +3 1023.6 989.3 -10.9
06 23.03 З 1 20 км 2 балла +10.4 -11.0 21 +11 +19 1021.2 988.0
09 23.03 СВ 4 20 км 2 балла +12.0 -13.0 16 +11 +13 1019.6 986.7
12 23.03 ЮВ 1 20 км 3/0 2000 м
[Ac lent Ci]
+6.2 -8.1 35 +6 +6 1018.3 984.9 +12.8
15 23.03 ЮЗ 2 н/о 2 балла +0.2 -9.0 50 -3 -3 1021.1 986.7
18 23.03 Ю 1 н/о 6 баллов -4.3 -8.1 75 -6 -6 1021.7 986.7
21 23.03 ЮЗ 1 н/о 7 баллов -1.9 -7.2 67 -4 -4 1019.9 985.3
00 24.03 З 3 20 км 1/0 2000 м
[Ac trans]
-6.2 -8.1 86 -12 -12 1019.9 984.8 -9.1
03 24.03 ЮВ 1 20 км 2 балла +4.2 -7.3 43 +4 +8 1019.1 985.3
12 24.03 СЗ 2
{11}
20 км 10/8 600 м
[Cb cap Ac trans Ci sp]
+8.4 -3.8 42 +7 +7 1015.4 982.3 +12.9
00 25.03 СЗ 1
{11}
1000 м слаб. ливневой дождь 10/10 600 м
[Cb cap]
+3.0 +0.9 86 +1 +1 1017.9 977.4 +2.8 0.0
06 25.03 СЗ 3 4000 м в посл. час ливневой снег 10 баллов +2.1 -1.3 78 -2 -2 1023.5 989.3
09 25.03 С 6 20 км 10 баллов +2.8 -4.4 59 -3 -3 1024.9 990.7
12 25.03 СЗ 3
{11}
20 км {ливн. осадки} 8/8 600 м
[Cb cap]
+0.3 -4.9 68 -4 -4 1027.7 992.6 +2.8
15 25.03 З 1 н/о 6 баллов -4.5 -6.8 84 -7 -7 1031.3 996.0
18 25.03 Ю 1 н/о 4 балла -7.5 -8.4 93 -10 -10 1031.7 996.0
21 25.03 ЮЗ 2 н/о 4 балла -8.0 -8.9 93 -13 -13 1033.1 997.3
00 26.03 штиль 0 20 км 10/9 1000 м
[Sc Ci sp]
-5.8 -7.0 91 -7 -7 1034.7 998.5 -8.7
03 26.03 ЮВ 1 20 км 7 баллов -0.2 -4.3 74 -2 -0 1034.9 1000.0
06 26.03 В 3 20 км 7 баллов +3.9 -10.5 34 +1 +3 1035.7 1001.3
09 26.03 СВ 2 20 км 2 балла +4.2 -10.3 34 +2 +6 1034.3 1000.0
12 26.03 СВ 2 20 км ясно +2.9 -9.1 41 +1 +1 1033.1 998.8 +4.4
15 26.03 Ю 2 н/о ясно -5.5 -8.9 77 -10 -10 1034.2 998.7
18 26.03 ЮЗ 2 н/о 4 балла -10.1 -10.7 95 -15 -15 1033.4 997.3

 

Местоположение метеостанции Первомайское (Хакасия, Россия): широта 54.58 долгота 90.87 высота над уровнем моря 275 м.

В архиве по умолчанию представлена погода в Первомайском за последнюю неделю. Архивные данные за месяц целиком и за предыдущие месяцы, начиная с января 2011 года, Вы можете получить, выбрав интересующий диапазон дат из раскрывающегося списка и нажав кнопку "Ввод!".


*Определитесь, кто Вы:
робот инопланетянин человек

Внимание! Время в таблицах - всемирное. Для получения местного времени необходимо прибавить поправку, которая равна 7 ч.

Смотрите также архив погоды в соседних городах и на ближайших метеорологических станциях:

Погода в Светлолобово (Красноярский край, Россия) (58 км)
Погода в Шире (Хакасия, Россия) (61 км)
Погода в Лебяжьем (Красноярский край, Россия) (62 км)
Погода в Копьево-2 (Хакасия, Россия) (82 км)
Погода в Идринском (Красноярский край, Россия) (85 км)
Погода в Хакасской (Хакасия, Россия) (95 км)
Погода в Уйбате (Хакасия, Россия) (101 км)
Погода в Балахте (Красноярский край, Россия) (103 км)
Погода в Ужуре (Красноярский край, Россия) (104 км)
Погода в Коммунаре (Хакасия, Россия) (107 км)

Пояснения к столбцам:

Ветер - указаны скорость ветра в м/с - средняя за 10 мин, порывы в срок и между сроками (в фигурных скобках) и направление, откуда дует ветер: С - северный, СВ - северо-восточный, В - восточный, ЮВ - юго-восточный, Ю - южный, ЮЗ - юго-западный, З - западный, СЗ - северо-западный.
Видимость - горизонтальная дальность видимости в метрах или километрах. При видимости от 1 до 10 км при отсутствии осадков обычно наблюдается дымка, при ухудшении видимости до 1 км и менее - туман. В сухую погоду видимость может ухудшаться дымом, пылью или мглою.
Явления - указаны атмосферные явления, наблюдавшиеся в срок или в последний час перед сроком; фигурными скобками обозначены явления, наблюдавшиеся между сроками (за 1-3 часа до срока); квадратными скобками обозначены град или гололедные отложения с указанием их диаметра в мм.
Облачность - указаны через наклонную черту общая и нижняя облачность в баллах и высота нижней границы облаков в метрах; квадратными скобками обозначены формы облаков: Ci - перистые, Cs - перисто-слоистые, Cc - перисто-кучевые, Ac - высококучевые, As - высокослоистые, Sc - слоисто-кучевые, Ns - слоисто-дождевые, Cu - кучевые, Cb - кучево-дождевые. Подробнее классификацию облаков см. в Атласе облаков (PDF).
T - Температура воздуха - температура, измеренная на высоте 2 м над землей.
Td - Температура точки росы - температура, при понижении до которой содержащийся в воздухе водяной пар достигнет насыщения.
f - Относительная влажность воздуха - влажноcть воздуха, измеренная на высоте 2 м над землей.
Te - Эффективная температура - температура, которую ощущает одетый по сезону человек в тени. Характеристика душности погоды. При расчете учитывается влияние влажности воздуха и скорости ветра на теплоощущения человека.
Tes - Эффективная температура на солнце - температура, которую ощущает человек, с поправкой на солнечный нагрев. Характеристика знойности погоды. Зависит от высоты солнца над горизонтом, облачности и скорости ветра. Ночью, в пасмурную погоду, а также при ветре 12 м/с и более поправка равна нулю.
P - Атмосферное давление - приведенное к уровню моря атмосферное давление.
Po - Атмосферное давление - измеренное на уровне метеостанции атмосферное давление.
Tmin - Минимальная температура - минимум температуры воздуха на высоте 2 м над землей.
Tmax - Максимальная температура - максимум температуры воздуха на высоте 2 м над землей.
R - Количество осадков - Количество выпавших осадков за период времени, мм. При наведении курсора мыши на число - период времени, за который выпало указанное количество осадков.
R24 - Количество осадков - Количество выпавших осадков за 24 часа, мм.
S - Снежный покров - Высота снежного покрова, см. При наведении курсора мыши на число - состояние снежного покрова и степень покрытия местности в баллах.